Home   Weather   Dharamshala   Past weeks

Flag for India Past Weather in Dharamshala, Himachal Pradesh, India — Yesterday and Last 2 Weeks

Now
86 °F

Scattered clouds.


Feels Like: 102 °F
Forecast: 62 / 70 °F
Wind: 10 mph from East

Location: Amritsar Airport

Current Time: Aug 20, 2017 at 1:24:29 pm

Latest Report: Aug 20, 2017 at 12:30 pm


Visibility: 5 mi

Pressure: 29.71 "Hg (25.42 "Hg at 1382m altitude)

Humidity: 84%

Dew Point: 81 °F

Location of DharamshalaLocation

Past Weather in Dharamshala — Graph

°F

Dharamshala Temperature Yesterday

Maximum temperature yesterday: 91 °F (at 2:00 pm)
Minimum temperature yesterday: 81 °F (at 9:30 pm)
Average temperature yesterday: 86 °F

High & Low Weather Summary for the Past Weeks

 TemperatureHumidityPressure
High97 °F (Aug 18, 1:00 pm)100% (Aug 5, 9:00 pm)29.74 "Hg (Aug 5, 9:00 pm)
Low75 °F (Aug 9, 7:00 am)53% (Aug 18, 1:00 pm)29.45 "Hg (Aug 10, 6:00 pm)
Average88 °F91%29.57 "Hg
* Reported Aug 5 11:30 am — Aug 20 12:00 pm, Dharamshala. Weather by CustomWeather, © 2017

Note: Actual official high and low records may vary slightly from our data, if they occured in-between our weather recording intervals... More about our weather records

Advertising

Dharamshala Weather History for the Previous 24 Hours

Scroll right to see more
 ConditionsComfort  
Time TempWeatherWind HumidityBarometerVisibility
12:00 pm
Sun, Aug 20
86 °FScattered clouds.10 mph89%29.71 "Hg4 mi
11:30 am86 °FScattered clouds.9 mph89%29.71 "Hg4 mi
11:00 am88 °FScattered clouds.9 mph84%29.74 "Hg4 mi
10:30 am86 °FScattered clouds.12 mph84%29.74 "Hg4 mi
10:00 am84 °FFog.12 mph100%29.74 "Hg3 mi
9:30 am84 °FFog.12 mph100%29.74 "Hg3 mi
9:00 am82 °FFog.7 mph100%29.74 "Hg2 mi
8:30 am82 °FFog.6 mph100%29.74 "Hg2 mi
8:00 am82 °FFog.3 mph100%29.71 "Hg2 mi
7:30 am81 °FFog.5 mph100%29.71 "Hg2 mi
7:00 am81 °FFog.1 mph100%29.71 "Hg2 mi
6:30 am81 °FFog.3 mph100%29.71 "Hg2 mi
5:30 am81 °FFog.6 mph100%29.71 "Hg2 mi
5:00 am81 °FFog.No wind100%29.68 "Hg2 mi
4:30 am81 °FFog.2 mph100%29.68 "Hg2 mi
4:00 am79 °FFog.7 mph100%29.68 "Hg2 mi
3:30 am79 °FFog.1 mph100%29.71 "Hg2 mi
3:00 am81 °FFog.No wind100%29.71 "Hg2 mi
2:30 am81 °FFog.No wind100%29.71 "Hg2 mi
2:00 am81 °FFog.No wind100%29.71 "Hg2 mi
1:30 am81 °FFog.No wind100%29.74 "Hg2 mi
1:00 am79 °FFog.No wind100%29.74 "Hg3 mi
12:30 am81 °FFog.No wind100%29.74 "Hg3 mi
12:00 am81 °FFog.1 mph100%29.71 "Hg3 mi
11:30 pm
Sat, Aug 19
81 °FFog.3 mph100%29.71 "Hg3 mi
11:00 pm81 °FFog.3 mph100%29.71 "Hg3 mi
10:30 pm81 °FFog.6 mph100%29.71 "Hg3 mi
10:00 pm81 °FFog.6 mph100%29.68 "Hg3 mi
9:30 pm81 °FFog.5 mph100%29.68 "Hg3 mi
9:00 pm82 °FPassing clouds.No wind100%29.68 "Hg3 mi
7:30 pm84 °FScattered clouds.8 mph94%29.65 "Hg4 mi
7:00 pm84 °FScattered clouds.5 mph100%29.65 "Hg4 mi
6:30 pm86 °FScattered clouds.7 mph94%29.65 "Hg4 mi
6:00 pm86 °FScattered clouds.8 mph100%29.65 "Hg4 mi
5:30 pm86 °FBroken clouds.12 mph89%29.65 "Hg4 mi
5:00 pm86 °FScattered clouds.10 mph94%29.65 "Hg4 mi
4:30 pm86 °FScattered clouds.13 mph94%29.65 "Hg4 mi
4:00 pm88 °FScattered clouds.13 mph89%29.65 "Hg4 mi
3:30 pm90 °FScattered clouds.14 mph89%29.65 "Hg4 mi
3:00 pm90 °FScattered clouds.13 mph84%29.65 "Hg4 mi
2:30 pm90 °FScattered clouds.10 mph94%29.68 "Hg4 mi
2:00 pm91 °FScattered clouds.9 mph94%29.68 "Hg4 mi
1:30 pm90 °FFog.10 mph94%29.68 "Hg4 mi
1:00 pm90 °FFog.10 mph94%29.68 "Hg4 mi
Weather by CustomWeather, © 2017

See weather overviewHow to use our weather pages